CAPE
809 223 60 9 37 40 77 169 284 131 104 122 596 470 458 360 763 866 756 1016 1197 309 570 692 738 664 796 1149 1552 1761 1677 1661 1508 1434 1334 1541 1589 1643 1601 1489 1314 1067 962
1393 833 337 344 437 216 236 244 475 33 0 0 0 42 10 11 787 625 1034 1154 953 411 618 624 712 779 695 739 744 846 1258 1188 1059 994 1097 1170 1090 1143 1406 1473 1582 1385 1188
1135 885 1525 1090 880 1473 1282 876 573 88 60 95 107 39 32 17 724 475 949 1042 909 1033 685 682 644 656 702 726 565 470 455 483 607 659 758 1142 1116 976 840 968 1141 792 1002
1171 1241 1269 1465 858 1391 1134 980 799 447 198 438 563 817 1144 713 430 134 444 465 0 41 931 579 256 659 638 783 574 525 492 444 345 417 716 1117 1035 910 896 890 896 793 572
1055 1307 823 1241 1128 1549 223 8 587 1212 818 964 1239 1450 1386 1368 521 236 10 12 24 84 525 890 931 919 1031 933 802 582 0 6 176 249 509 885 1116 919 725 709 637 701 549
1192 1011 756 1507 1712 1577 16 0 0 553 996 1323 1586 1210 1235 1238 708 466 390 237 122 0 434 853 919 1244 943 844 808 682 238 243 273 225 508 764 847 761 719 847 614 294 151
1689 1088 1040 1538 1686 1562 458 392 227 298 1307 1659 1295 1088 1093 716 561 487 90 67 133 0 468 735 821 921 813 855 628 609 743 921 733 550 613 851 988 948 767 332 24 12 2
1309 877 1303 896 1125 1422 1155 965 642 840 1406 1729 1453 936 770 629 671 200 193 226 143 318 545 692 791 808 580 389 465 730 944 1026 931 837 735 628 536 532 367 181 133 105 82
900 781 766 1108 1342 1383 1614 1488 1502 1567 1519 1553 1621 1099 731 613 1006 700 582 458 435 552 489 434 853 681 419 2 0 0 0 35 226 461 729 580 497 387 394 246 23 43 17
340 587 843 1083 1048 1344 1357 1889 2072 1865 1565 1631 1281 1306 1110 1087 1144 998 698 423 403 256 331 713 747 360 48 0 0 0 0 0 0 0 20 182 576 492 260 347 178 179 136
319 662 586 586 954 1438 1388 1805 1839 1868 1714 1651 1374 1197 1061 1275 922 990 662 295 306 350 254 242 222 0 0 0 0 0 0 0 0 0 0 93 265 433 667 643 519 455 381
481 391 581 866 717 983 1382 1819 1692 1686 1625 1651 1354 1119 1376 1120 656 355 135 176 157 0 0 0 0 0 0 0 0 0 0 0 0 0 0 0 0 29 202 466 687 630 521
464 1204 1029 717 1166 1461 1712 1258 1701 1926 1797 1447 1385 1370 623 184 287 230 78 69 265 105 0 0 0 0 0 0 0 3 0 0 0 0 0 0 0 0 0 3 132 551 561
1568 1127 1284 1356 1455 1099 1314 1999 2083 1968 1606 1352 1133 625 373 456 644 461 2 0 0 14 1 0 0 0 0 0 0 0 3 1 0 0 0 0 0 0 0 3 0 1 11
829 1005 1565 1524 1854 2032 1957 2213 2362 1928 1786 985 721 726 327 0 0 0 0 0 0 0 0 0 0 0 0 0 0 0 7 3 0 0 0 0 0 0 6 5 2 0 0
2378 2012 1669 1704 1909 2205 2466 2682 2156 1963 1479 855 506 147 0 0 0 0 0 0 0 0 0 0 0 0 0 0 3 0 0 0 0 0 0 0 0 2 2 3 2 1 0
1896 1729 1881 2052 2400 2735 2511 2688 2158 1940 1246 518 131 2 0 0 0 0 0 0 0 0 0 0 0 0 0 0 1 0 0 0 0 0 0 0 0 0 0 0 0 0 1
2225 1903 2314 2536 2726 2643 2579 2432 2051 1797 1011 457 9 0 0 0 0 0 0 0 0 0 0 0 0 0 0 0 0 0 0 0 0 0 0 0 0 0 0 0 0 0 0
2109 2349 2565 2616 2609 2631 2684 2404 1914 1301 731 184 0 0 0 0 0 0 0 0 0 0 0 0 0 0 0 0 0 0 0 0 0 0 0 0 0 0 0 1 0 0 0
2586 2542 2611 2834 2892 2550 2730 2170 1543 819 136 0 0 0 0 0 0 0 0 0 0 0 0 0 0 0 0 0 0 0 0 0 0 0 0 0 0 0 2 1 0 0 1
2784 2617 2806 2805 2643 2541 2737 2009 1201 373 0 0 0 0 0 0 0 0 0 0 0 0 0 0 0 0 0 0 0 0 0 0 0 0 0 0 0 0 0 0 1 5 2
2715 2609 2731 2716 2655 2785 2490 1673 963 20 0 0 0 0 0 0 0 0 0 0 0 0 0 0 0 0 0 0 0 0 0 13 0 0 0 0 0 0 0 0 4 5 3
2793 2838 2768 2605 2629 2387 1813 1347 329 0 0 0 0 0 0 0 0 0 0 0 0 0 0 0 0 0 0 0 0 0 0 0 0 0 0 0 0 0 0 1 5 2 2
2628 2387 2866 2929 2551 2020 1467 630 100 0 0 0 0 0 0 0 0 0 0 0 0 0 0 0 0 0 0 0 0 0 0 0 0 0 0 1 0 0 0 1 4 2 1
2650 2774 2815 3000 2544 1797 1026 250 24 0 0 0 0 0 0 0 0 0 0 0 0 0 0 0 0 0 0 0 0 0 0 0 0 0 1 0 0 0 0 1 3 2 1
2760 3245 3192 3073 2520 1952 586 192 25 0 0 0 0 0 0 0 0 0 0 0 0 0 0 0 0 0 0 0 0 0 0 0 1 1 2 1 1 0 0 1 2 4 2
CIN
-75 -164 -242 -85 -94 -321 -255 -194 -112 -188 -137 -71 -73 -65 -56 -60 -69 -77 -91 -89 -62 -149 -50 -68 -67 -76 -58 -37 -15 -9 -7 -4 -4 -3 -3 -2 -1 -0 -0 -0 -0 -1 -5
-30 -76 -158 -142 -148 -227 -206 -175 -84 -111 -0 -0 -0 -97 -35 -102 -43 -47 -62 -59 -48 -79 -48 -63 -58 -48 -38 -42 -47 -37 -18 -12 -13 -16 -10 -6 -6 -6 -1 -1 -0 -0 -2
-25 -29 -23 -26 -52 -65 -64 -48 -55 -85 -95 -172 -146 -109 -119 -177 -104 -133 -101 -108 -92 -55 -43 -13 -25 -34 -36 -29 -34 -32 -35 -41 -26 -33 -33 -10 -8 -13 -24 -13 -5 -17 -16
-22 -24 -29 -21 -34 -43 -56 -64 -105 -102 -121 -129 -114 -94 -67 -78 -160 -269 -221 -181 -0 -108 -62 -58 -129 -12 -33 -25 -26 -12 -5 -9 -5 -24 -21 -7 -6 -10 -10 -8 -8 -13 -25
-17 -21 -24 -26 -30 -60 -109 -105 -118 -99 -106 -86 -85 -77 -63 -56 -194 -295 -402 -399 -142 -276 -76 -40 -22 -12 -27 -10 -22 -18 -0 -63 -66 -30 -37 -20 -6 -12 -15 -18 -12 -15 -22
-18 -20 -36 -21 -25 -51 -144 -0 -0 -141 -103 -60 -51 -73 -60 -98 -182 -199 -246 -266 -232 -0 -43 -18 -39 -15 -7 -8 -20 -9 -66 -66 -36 -61 -43 -11 -6 -12 -28 -16 -22 -98 -66
-13 -26 -39 -20 -23 -33 -129 -154 -187 -188 -77 -33 -61 -98 -60 -101 -127 -147 -245 -262 -218 -0 -37 -27 -112 -92 -71 -33 -24 -10 -3 -3 -8 -28 -34 -15 -7 -16 -21 -44 -103 -164 -133
-19 -61 -46 -96 -66 -41 -71 -94 -189 -141 -70 -24 -14 -51 -127 -91 -55 -169 -137 -89 -130 -70 -69 -85 -73 -91 -145 -154 -69 -27 -14 -3 -4 -10 -18 -28 -35 -36 -56 -82 -100 -97 -91
-65 -114 -125 -90 -69 -64 -60 -86 -63 -31 -30 -36 -29 -16 -104 -93 -13 -30 -28 -32 -29 -71 -100 -87 -74 -122 -153 -20 -0 -0 -0 -26 -44 -33 -8 -15 -21 -36 -36 -27 -75 -51 -104
-171 -156 -148 -117 -119 -81 -70 -25 -12 -14 -20 -14 -34 -32 -32 -15 -2 -5 -22 -33 -53 -74 -36 -14 -39 -130 -260 -0 -0 -0 -0 -0 -0 -0 -84 -61 -28 -20 -37 -22 -39 -22 -66
-173 -149 -139 -138 -107 -55 -55 -26 -13 -8 -9 -10 -25 -31 -48 -27 -21 -2 -8 -38 -47 -21 -26 -58 -69 -81 -0 -0 -0 -0 -0 -0 -0 -0 -0 -41 -37 -27 -8 -5 -8 -9 -18
-136 -158 -136 -92 -106 -74 -43 -29 -12 -9 -10 -20 -30 -48 -15 -8 -12 -26 -89 -54 -31 -0 -0 -0 -0 -0 -0 -0 -0 -0 -0 -0 -0 -0 -0 -0 -0 -78 -30 -9 -1 -0 -4
-143 -67 -100 -117 -77 -51 -39 -50 -16 -6 -11 -26 -33 -30 -62 -144 -70 -57 -100 -117 -11 -43 -0 -0 -0 -0 -0 -0 -0 -5 -0 -0 -0 -0 -0 -0 -0 -0 -0 -41 -39 -12 -1
-46 -91 -92 -89 -65 -74 -60 -20 -6 -12 -37 -53 -62 -92 -81 -27 -7 -10 -35 -0 -0 -15 -15 -0 -0 -0 -0 -0 -0 -0 -28 -42 -0 -0 -0 -0 -0 -0 -0 -0 -0 -7 -3
-122 -115 -61 -54 -44 -49 -34 -8 -5 -25 -39 -89 -99 -50 -102 -0 -0 -0 -0 -0 -0 -0 -0 -0 -0 -0 -0 -0 -0 -5 -59 -56 -0 -0 -0 -0 -0 -0 -0 -0 -6 -5 -0
-21 -42 -56 -52 -47 -37 -23 -4 -13 -36 -54 -92 -122 -201 -0 -0 -0 -0 -0 -0 -0 -0 -0 -0 -0 -0 -0 -0 -22 -0 -0 -0 -0 -0 -0 -0 -0 -3 -4 -6 -5 -0 -0
-47 -60 -56 -55 -48 -21 -16 -4 -19 -36 -84 -160 -271 -96 -0 -0 -0 -0 -0 -0 -0 -0 -0 -0 -0 -0 -0 -0 -10 -0 -0 -0 -0 -0 -0 -0 -0 -0 -0 -0 -1 -1 -4
-55 -67 -51 -53 -33 -16 -8 -19 -28 -47 -104 -180 -40 -0 -0 -0 -0 -0 -0 -0 -0 -0 -0 -0 -0 -0 -0 -0 -0 -0 -0 -0 -0 -0 -0 -0 -0 -0 -0 -0 -0 -0 -0
-72 -62 -51 -46 -31 -9 -11 -25 -54 -104 -155 -312 -0 -0 -0 -0 -0 -0 -0 -0 -0 -0 -0 -0 -0 -0 -0 -0 -0 -0 -0 -0 -0 -0 -0 -0 -0 -0 -0 -0 -0 -0 -0
-58 -54 -45 -23 -10 -10 -18 -48 -108 -214 -322 -0 -0 -0 -0 -0 -0 -0 -0 -0 -0 -0 -0 -0 -0 -0 -0 -0 -0 -0 -5 -0 -0 -0 -0 -0 -0 -0 -0 -0 -0 -0 -0
-44 -57 -32 -25 -23 -15 -43 -91 -188 -387 -0 -0 -0 -0 -0 -0 -0 -0 -0 -0 -0 -0 -0 -0 -0 -0 -0 -0 -0 -0 -0 -0 -0 -0 -0 -0 -0 -0 -0 -0 -0 -0 -0
-56 -67 -46 -39 -30 -16 -66 -143 -271 -549 -0 -0 -0 -0 -0 -0 -0 -0 -0 -0 -0 -0 -0 -0 -0 -0 -0 -0 -0 -0 -0 -19 -0 -0 -0 -0 -0 -0 -0 -0 -0 -0 -0
-58 -66 -57 -70 -60 -86 -161 -226 -510 -0 -0 -0 -0 -0 -0 -0 -0 -0 -0 -0 -0 -0 -0 -0 -0 -0 -0 -0 -0 -0 -0 -0 -0 -0 -0 -0 -0 -0 -0 -0 -0 -0 -0
-72 -101 -58 -59 -90 -167 -237 -434 -655 -0 -0 -0 -0 -0 -0 -0 -0 -0 -0 -0 -0 -0 -0 -0 -0 -0 -0 -0 -0 -0 -0 -0 -0 -0 -0 -0 -0 -0 -0 -0 -0 -0 -0
-80 -76 -72 -78 -104 -216 -348 -601 -790 -0 -0 -0 -0 -0 -0 -0 -0 -0 -0 -0 -0 -0 -0 -0 -0 -0 -0 -0 -0 -0 -0 -0 -0 -0 -0 -0 -0 -0 -0 -0 -0 -0 -0
-78 -50 -49 -72 -126 -196 -499 -637 -800 -0 -0 -0 -0 -0 -0 -0 -0 -0 -0 -0 -0 -0 -0 -0 -0 -0 -0 -0 -0 -0 -0 -0 -0 -0 -0 -0 -0 -0 -0 -1 -0 -0 -0
Wind_Speed
22 21 17 16 19 14 8 4 8 10 10 8 12 14 23 27 14 12 9 8 9 6 9 8 7 7 7 6 6 5 3 2 1 1 1 2 1 2 2 3 4 4 5
14 16 15 15 14 14 9 7 5 8 12 9 3 13 21 25 22 17 11 9 8 8 5 6 3 3 1 1 1 3 3 4 3 3 5 6 6 6 5 6 6 6 6
12 12 12 16 17 17 18 15 13 14 11 13 11 16 20 25 27 26 21 18 18 19 13 25 4 7 3 5 8 8 8 6 5 4 4 4 4 5 6 7 7 7 7
12 10 14 9 12 19 17 13 11 13 11 4 5 15 23 23 22 24 21 16 20 19 20 6 1 5 19 8 11 7 17 19 16 10 6 5 5 5 5 5 6 6 7
12 10 9 6 11 19 18 16 12 12 6 8 16 15 18 19 18 20 21 20 20 23 22 11 7 14 13 12 12 14 12 16 12 6 8 6 5 4 4 4 6 5 6
13 10 8 7 10 14 5 7 16 18 18 17 19 8 14 27 22 23 22 20 19 24 22 21 20 21 21 20 16 13 16 14 11 11 10 8 7 5 3 3 3 3 6
15 10 6 8 6 7 1 4 3 10 13 17 23 21 25 28 29 26 22 20 20 21 21 23 23 24 23 24 23 21 21 18 16 13 10 7 5 4 4 3 3 2 3
11 8 7 4 2 1 3 2 8 10 10 11 16 18 24 25 34 20 20 21 20 22 22 21 23 23 23 23 24 24 23 22 16 13 10 8 6 5 4 4 4 4 6
11 9 7 5 3 3 2 4 8 10 6 8 8 22 23 22 23 17 19 20 25 22 21 21 21 22 22 23 24 24 23 22 20 17 13 7 4 4 6 9 10 10 8
12 11 9 7 5 3 1 4 7 9 10 8 13 22 19 15 18 18 20 25 24 23 21 20 22 23 23 23 26 26 26 25 23 21 19 16 15 10 8 11 13 15 14
13 11 9 8 8 8 6 7 9 10 12 15 18 18 21 23 23 20 22 24 25 24 26 26 24 25 26 25 27 27 26 25 24 22 20 19 17 16 17 19 21 20 19
12 9 8 9 8 8 8 9 9 12 13 17 18 22 24 22 21 23 22 22 24 26 25 25 23 24 26 26 24 24 23 23 23 21 19 18 18 17 17 17 17 21 22
12 8 12 11 9 10 12 10 11 13 20 19 21 24 24 23 22 22 23 22 20 19 21 25 24 23 25 27 23 21 20 19 19 18 18 18 18 17 19 19 18 17 17
14 9 13 12 13 10 9 11 13 22 22 23 24 24 25 23 21 20 22 22 22 20 20 19 22 23 24 26 25 19 19 19 19 19 18 18 19 18 18 17 18 18 18
15 12 15 14 11 10 10 11 19 21 23 24 24 25 27 29 30 28 27 25 22 20 20 18 18 21 22 22 22 19 20 20 19 19 18 19 17 14 15 16 16 18 19
15 14 12 10 9 9 9 14 20 22 24 25 26 28 28 27 28 28 28 27 26 24 20 18 21 22 23 20 21 21 20 20 20 19 19 19 19 15 12 16 17 19 22
16 14 10 8 8 9 9 15 21 22 24 25 27 28 28 28 27 28 29 27 26 24 23 23 22 25 25 25 21 21 20 19 20 21 20 19 18 16 14 11 18 21 22
17 15 12 10 8 9 9 18 22 22 23 24 26 27 27 27 29 28 27 26 23 22 25 27 26 24 26 25 23 21 19 19 21 21 20 20 19 16 15 13 13 17 20
19 18 15 12 9 9 15 19 21 23 23 24 26 27 27 27 28 29 29 29 29 28 29 26 24 23 23 22 22 22 20 20 19 20 20 21 22 20 15 13 13 13 15
20 19 16 13 10 10 16 18 21 23 24 25 26 27 27 26 27 28 29 28 28 28 27 28 27 25 22 21 21 22 21 15 17 18 16 18 20 21 19 17 15 21 24
21 20 18 14 12 11 15 17 20 21 23 25 26 27 28 29 29 30 31 32 32 31 30 29 30 28 24 23 23 19 18 18 16 18 15 14 15 18 23 19 21 24 25
21 21 19 16 14 12 16 18 19 20 22 24 25 27 28 29 30 31 32 32 33 33 33 31 31 32 27 23 22 23 21 19 20 19 17 19 17 19 12 19 20 21 23
21 21 20 17 14 15 16 17 19 19 21 23 24 25 25 26 27 29 29 30 30 30 31 31 33 33 30 25 23 23 25 27 25 18 17 18 14 14 11 6 12 20 20
20 21 20 15 13 14 15 17 18 19 20 22 23 23 23 22 23 24 25 26 26 27 28 30 32 32 33 30 28 26 26 26 26 27 24 21 19 18 13 6 16 14 14
17 20 23 12 12 14 14 15 17 18 19 20 19 21 22 23 22 21 23 24 24 25 25 28 28 31 36 39 37 35 35 31 26 24 23 19 16 15 15 5 7 12 12
14 7 10 13 11 13 13 14 15 16 17 18 19 20 21 21 22 22 23 24 24 25 23 24 25 27 30 35 40 38 33 35 29 25 20 21 18 17 19 16 9 11 8
Wind_Direction
92 98 111 104 79 101 115 161 168 110 101 122 94 86 56 28 92 80 80 116 91 64 148 82 112 129 145 161 168 161 140 94 64 32 24 7 1 355 14 324 316 305 293
122 114 100 88 89 93 108 139 152 300 323 104 103 88 55 38 46 50 73 80 106 48 75 43 116 90 95 134 216 319 328 333 333 336 330 328 318 306 309 306 309 306 299
138 128 98 87 78 88 90 86 93 86 87 85 82 68 54 33 33 33 44 41 21 19 1 327 197 359 357 348 333 317 308 295 300 308 326 327 323 309 297 295 299 300 296
148 135 95 107 95 86 88 91 90 82 72 15 334 60 45 39 40 32 30 40 26 20 16 39 351 354 344 219 332 328 315 290 297 306 337 336 324 316 303 295 295 300 294
147 141 129 133 103 87 84 73 86 76 341 32 55 53 46 44 45 33 25 22 7 11 8 35 51 8 18 12 355 343 1 336 27 37 345 338 323 316 311 290 290 295 290
143 140 142 120 103 98 97 63 71 64 62 55 51 39 51 34 49 33 23 27 26 16 17 18 7 6 8 10 11 18 10 19 37 38 7 342 317 311 318 275 277 292 283
118 143 166 122 125 101 50 331 28 65 56 51 42 42 40 35 30 26 36 35 31 30 27 26 12 16 14 7 12 8 5 6 8 12 358 354 334 323 299 285 279 270 278
163 174 151 177 208 154 297 34 63 59 49 45 45 44 36 34 17 46 42 40 37 35 30 28 23 30 22 19 16 10 1 5 8 3 358 347 331 304 288 276 263 264 269
158 167 171 167 156 122 79 59 58 53 18 353 3 40 34 29 25 48 46 38 32 33 31 35 42 35 28 21 14 12 10 4 1 358 356 355 342 310 292 279 283 274 274
145 147 136 128 120 107 48 61 50 51 38 14 33 37 33 30 36 37 34 34 34 34 38 44 44 41 31 23 12 4 357 352 346 343 341 335 318 298 285 275 269 270 279
147 147 131 114 96 81 72 59 49 41 44 43 39 34 34 41 42 42 35 35 40 35 37 45 52 34 24 20 11 5 2 358 353 345 337 329 324 316 295 279 274 273 272
158 163 153 114 96 80 69 60 52 49 47 46 39 38 39 44 48 46 45 45 46 46 47 45 46 37 31 24 21 19 14 11 9 2 351 337 322 313 302 293 283 273 271
178 216 113 115 102 79 65 59 57 51 49 44 44 43 47 52 56 54 50 47 52 56 51 41 40 40 28 19 25 25 29 30 25 20 5 341 323 316 298 288 283 279 276
161 210 113 109 85 70 65 62 58 47 46 46 48 51 52 55 57 57 53 50 53 59 49 48 44 37 32 27 27 43 50 43 41 39 25 1 332 317 300 292 281 275 273
191 180 76 74 77 74 65 65 53 47 49 52 52 52 50 52 52 54 52 53 55 56 53 53 48 41 41 39 43 55 54 50 45 40 42 26 7 347 313 294 286 278 271
161 137 108 92 90 83 77 64 53 53 54 54 53 52 51 53 53 53 53 58 63 63 59 57 53 52 46 55 62 63 64 61 56 55 55 49 35 24 345 295 287 278 267
172 178 170 141 116 89 82 65 55 56 57 55 55 52 54 53 56 57 60 63 64 63 62 63 62 51 47 46 61 62 63 63 61 58 59 57 58 46 36 355 279 265 262
181 185 178 165 140 103 91 67 57 59 61 58 57 53 56 58 57 60 62 60 64 63 67 62 55 53 45 48 53 60 64 63 59 56 54 52 54 66 63 19 323 278 267
180 186 184 175 151 111 77 70 64 62 63 60 59 57 59 61 61 59 61 60 63 67 63 60 52 48 50 57 58 55 57 54 57 54 51 49 41 35 51 34 340 314 288
178 185 187 181 152 124 79 75 70 68 63 61 60 61 61 65 65 62 60 60 62 64 63 58 53 51 58 66 65 54 53 69 63 54 62 52 43 28 14 345 333 269 254
179 191 187 179 162 138 90 79 76 75 71 66 63 64 64 65 66 66 63 62 62 65 65 63 56 54 60 64 57 60 61 61 68 64 60 63 53 44 7 332 281 263 256
176 187 184 177 164 123 91 85 82 82 78 74 69 68 69 68 69 68 66 66 65 65 63 64 61 57 60 64 61 57 57 66 61 52 55 62 65 61 87 306 287 290 271
170 177 176 172 112 91 92 83 83 84 81 81 80 77 75 75 75 73 70 69 69 69 68 69 63 59 60 60 59 59 59 63 59 63 76 71 88 89 100 139 272 292 273
163 168 170 143 99 97 95 83 85 85 84 84 85 82 81 80 81 79 75 71 71 70 70 69 69 65 61 59 59 61 61 66 61 59 59 69 75 80 88 90 308 304 286
157 162 174 118 102 105 98 86 86 87 86 85 84 85 82 80 82 86 77 75 75 71 73 70 73 69 62 57 57 57 57 59 60 63 66 78 89 96 98 79 325 338 344
156 136 135 131 109 110 108 95 93 90 86 82 79 82 83 82 80 79 78 76 74 71 73 70 72 72 68 62 55 57 60 55 58 69 75 83 94 103 98 88 351 8 38